Laramie, WY

1:56 AM MDT on September 26, 2017 (GMT -0600)
Laramie Regional

Weather History for KLAR - March, 2014

Change the Weather History Date:

Tuesday, March 4, 2014

  Actual Average Record
Temperature  
Mean Temperature 34 °F 28 °F  
Max Temperature 41 °F 40 °F 60 °F (1986)
Min Temperature 27 °F 16 °F -11 °F (1963)
Degree Days  
Heating Degree Days 31 37  
Month to date heating degree days 128 150  
Since 1 July heating degree days 6130 6326  
Cooling Degree Days 0 0  
Month to date cooling degree days 0 0  
Year to date cooling degree days 0 0  
Moisture  
Dew Point 27 °F    
Average Humidity 73    
Maximum Humidity 92    
Minimum Humidity 54    
Precipitation  
Precipitation 0.03 in 0.02 in 0.25 in (1983)
Month to date precipitation 0.07 0.06  
Year to date precipitation 0.91 0.67  
Sea Level Pressure  
Sea Level Pressure 29.90 in    
Wind  
Wind Speed 12 mph (West)    
Max Wind Speed 26 mph    
Max Gust Speed 31 mph    
Visibility 6 miles    
Events Fog , Rain , Snow    
T = Trace of Precipitation, MM = Missing Value Source: NWS Daily Summary

Daily Weather History Graph

Daily Weather History Graph

Search for Another Location

Airport or City:

Trip Planner

Search our weather history database for the weather conditions in past years. The results will help you decide how hot, cold, wet, or windy it might be!

Date:

Astronomy

Mar. 04, 2014 Rise Set
Actual Time 6:32 AM MST 5:57 PM MST
Civil Twilight 6:04 AM MST 6:24 PM MST
Nautical Twilight 5:32 AM MST 6:56 PM MST
Astronomical Twilight 5:00 AM MST 7:28 PM MST
Moon 8:17 AM MST (3/4) 10:10 PM MST (3/4)
Length of Visible Light 12h 20m
Length of Day
11h 24m
Waxing Crescent, 15% of the Moon is Illuminated
Mar 4
Waxing Crescent
Mar 8
First Quarter
Mar 16
Full
Mar 23
Last Quarter
Mar 30
New

Hourly Weather History & Observations

Time (MST) Temp. Windchill Dew Point Humidity Pressure Visibility Wind Dir Wind Speed Gust Speed Precip Events Conditions
12:53 AM 36.0 °F 27.1 °F 24.1 °F 62% 29.82 in 10.0 mi WSW 13.8 mph - N/A   Scattered Clouds
1:53 AM 36.0 °F 31.1 °F 24.1 °F 62% 29.82 in 10.0 mi WSW 5.8 mph - N/A   Mostly Cloudy
2:53 AM 35.1 °F 28.6 °F 24.1 °F 64% 29.81 in 10.0 mi South 8.1 mph - N/A   Scattered Clouds
3:53 AM 37.0 °F 34.5 °F 23.0 °F 57% 29.81 in 10.0 mi Variable 3.5 mph - N/A   Overcast
4:53 AM 34.0 °F 26.6 °F 24.1 °F 67% 29.83 in 10.0 mi NW 9.2 mph - N/A   Mostly Cloudy
5:53 AM 35.1 °F 25.5 °F 23.0 °F 61% 29.83 in 10.0 mi West 15.0 mph - N/A   Partly Cloudy
6:53 AM 34.0 °F 22.1 °F 25.0 °F 70% 29.83 in 10.0 mi WSW 21.9 mph - N/A   Scattered Clouds
7:53 AM 37.0 °F 26.2 °F 26.1 °F 65% 29.82 in 10.0 mi West 21.9 mph - N/A   Mostly Cloudy
8:53 AM 37.0 °F 26.2 °F 27.0 °F 67% 29.82 in 10.0 mi West 21.9 mph - N/A   Overcast
9:53 AM 37.9 °F 28.9 °F 27.0 °F 65% 29.82 in 10.0 mi WNW 16.1 mph - N/A   Partly Cloudy
10:53 AM 39.9 °F 30.8 °F 27.0 °F 60% 29.79 in 10.0 mi WNW 18.4 mph - N/A   Overcast
11:53 AM 39.9 °F 31.1 °F 27.0 °F 60% 29.80 in 10.0 mi WNW 17.3 mph - N/A   Overcast
12:53 PM 41.0 °F 30.9 °F 27.0 °F 57% 29.76 in 10.0 mi WNW 24.2 mph - N/A   Overcast
1:53 PM 41.0 °F 32.2 °F 28.0 °F 60% 29.75 in 10.0 mi West 18.4 mph - N/A   Overcast
2:53 PM 37.0 °F 26.4 °F 28.9 °F 73% 29.80 in 6.0 mi NNW 20.7 mph 27.6 mph 0.00 in Rain Light Rain
3:03 PM 33.1 °F 21.9 °F 30.0 °F 89% 29.87 in 2.5 mi North 18.4 mph 27.6 mph 0.00 in Snow Light Snow
3:07 PM 32.0 °F 18.6 °F 30.0 °F 92% 29.87 in 4.0 mi North 25.3 mph 29.9 mph 0.00 in Snow Light Snow
3:30 PM 30.9 °F 19.4 °F 28.0 °F 89% 29.88 in 10.0 mi North 17.3 mph 25.3 mph 0.00 in   Overcast
3:40 PM 30.9 °F 20.2 °F 28.0 °F 89% 29.88 in 1.8 mi North 15.0 mph - 0.00 in Snow Light Snow
3:50 PM 30.2 °F 19.8 °F 28.4 °F 93% 29.88 in 2.0 mi North 13.8 mph - 0.00 in Snow Light Snow
3:53 PM 30.9 °F 20.7 °F 28.0 °F 89% 29.84 in 3.0 mi North 13.8 mph - 0.00 in Snow Light Snow
4:21 PM 32.0 °F 21.6 °F 27.0 °F 82% 29.88 in 3.0 mi NNW 15.0 mph - 0.00 in Snow Light Snow
4:27 PM 32.0 °F 20.5 °F 27.0 °F 82% 29.88 in 1.8 mi NW 18.4 mph 23.0 mph 0.00 in Snow Light Snow
4:33 PM 30.0 °F 18.3 °F 28.0 °F 92% 29.88 in 0.5 mi NW 17.3 mph - 0.00 in Fog , Snow Light Snow
4:45 PM 30.0 °F 20.0 °F 28.0 °F 92% 29.88 in 1.0 mi NW 12.7 mph - 0.00 in Snow Light Snow
4:50 PM 30.2 °F 21.9 °F 28.4 °F 93% 29.88 in 3.0 mi NNW 9.2 mph - 0.00 in Snow Light Snow
4:53 PM 30.9 °F 24.3 °F 28.0 °F 89% 29.86 in 8.0 mi NNW 6.9 mph - 0.00 in   Overcast
5:07 PM 30.9 °F 25.2 °F 27.0 °F 85% 29.89 in 10.0 mi West 5.8 mph - N/A   Overcast
5:53 PM 30.9 °F 23.5 °F 27.0 °F 85% 29.89 in 10.0 mi WSW 8.1 mph - N/A   Overcast
6:19 PM 30.0 °F 24.1 °F 27.0 °F 88% 29.93 in 10.0 mi SSW 5.8 mph - N/A   Overcast
6:37 PM 30.0 °F 21.1 °F 27.0 °F 88% 29.95 in 10.0 mi SSW 10.4 mph - 0.00 in   Overcast
6:51 PM 30.2 °F 21.3 °F 28.4 °F 93% 29.96 in 1.8 mi SSW 10.4 mph - 0.00 in Snow Light Snow
6:53 PM 30.0 °F 21.1 °F 28.0 °F 92% 29.94 in 1.2 mi SSW 10.4 mph - 0.00 in Snow Light Snow
7:09 PM 30.0 °F 23.2 °F 28.0 °F 92% 29.96 in 3.0 mi South 6.9 mph - 0.00 in Snow Light Snow
7:18 PM 30.0 °F 24.1 °F 28.0 °F 92% 29.97 in 4.0 mi SW 5.8 mph - 0.00 in Snow Light Snow
7:25 PM 30.0 °F 22.4 °F 28.0 °F 92% 29.97 in 1.8 mi SW 8.1 mph - 0.00 in Snow Light Snow
7:35 PM 30.0 °F 25.2 °F 27.0 °F 88% 29.97 in 1.5 mi WSW 4.6 mph - 0.01 in Snow Light Snow
7:39 PM 30.0 °F 26.5 °F 27.0 °F 88% 29.97 in 3.0 mi West 3.5 mph - 0.01 in Snow Light Snow
7:49 PM 30.2 °F 24.3 °F 26.6 °F 86% 29.97 in 1.8 mi Variable 5.8 mph - 0.01 in Snow Light Snow
7:53 PM 30.0 °F - 27.0 °F 88% 29.94 in 1.5 mi Calm Calm - 0.01 in Snow Light Snow
8:00 PM 30.0 °F - 27.0 °F 88% 29.97 in 3.0 mi Calm Calm - 0.00 in Snow Light Snow
8:35 PM 30.0 °F - 27.0 °F 88% 29.99 in 1.8 mi Calm Calm - 0.00 in Snow Light Snow
8:49 PM 28.4 °F 23.3 °F 28.4 °F 100% 29.99 in 3.0 mi SSW 4.6 mph - 0.00 in Snow Light Snow
8:53 PM 28.9 °F 23.9 °F 28.0 °F 96% 29.98 in 7.0 mi SW 4.6 mph - 0.00 in   Overcast
9:15 PM 28.9 °F 25.2 °F 27.0 °F 92% 30.00 in 10.0 mi South 3.5 mph - N/A   Overcast
9:41 PM 28.9 °F 23.9 °F 28.0 °F 96% 30.01 in 2.5 mi Variable 4.6 mph - 0.00 in Snow Light Snow
9:53 PM 28.9 °F 22.8 °F 27.0 °F 92% 29.98 in 2.5 mi WSW 5.8 mph - 0.00 in Snow Light Snow
9:57 PM 28.9 °F 22.8 °F 27.0 °F 92% 30.02 in 5.0 mi WSW 5.8 mph - 0.00 in Snow Light Snow
10:53 PM 28.9 °F - 26.1 °F 89% 29.98 in 7.0 mi Calm Calm - 0.00 in   Overcast
11:35 PM 27.0 °F 19.5 °F 26.1 °F 96% 30.04 in 4.0 mi SW 6.9 mph - 0.00 in Snow Light Snow
11:37 PM 27.0 °F 19.5 °F 26.1 °F 96% 30.04 in 1.8 mi SW 6.9 mph - 0.00 in Snow Light Snow
11:40 PM 28.0 °F 20.8 °F 27.0 °F 96% 30.04 in 0.8 mi SW 6.9 mph - 0.01 in Snow Light Snow
11:53 PM 28.0 °F 21.7 °F 27.0 °F 96% 30.01 in 1.0 mi WSW 5.8 mph - 0.02 in Snow Light Snow